Alpine, TX

9:39 PM CDT on July 29, 2016 (GMT -0500)
Alpine

Weather History for KE38 - March, 2013

Change the Weather History Date:

Saturday, March 2, 2013

  Actual Average (KMRF) Record (KMRF)
Temperature  
Mean Temperature 48 °F -  
Max Temperature 66 °F 61 °F 80 °F (2016)
Min Temperature 31 °F 30 °F 19 °F (1998)
Degree Days  
Heating Degree Days 16    
Moisture  
Dew Point 11 °F    
Average Humidity 24    
Maximum Humidity 39    
Minimum Humidity 13    
Precipitation  
Precipitation 0.00 in - - ()
Sea Level Pressure  
Sea Level Pressure 30.39 in    
Wind  
Wind Speed - (North)    
Max Wind Speed -    
Max Gust Speed -    
Visibility 10 miles    
Events      
Averages and records for this station are not official NWS values.
T = Trace of Precipitation, MM = Missing Value Source: NWS Daily Summary

Daily Weather History Graph

Daily Weather History Graph

Search for Another Location

Airport or City:

Trip Planner

Search our weather history database for the weather conditions in past years. The results will help you decide how hot, cold, wet, or windy it might be!

Date:

Astronomy

Mar. 02, 2013 Rise Set
Actual Time 7:19 AM CST 6:54 PM CST
Civil Twilight 6:55 AM CST 7:18 PM CST
Nautical Twilight 6:27 AM CST 7:46 PM CST
Astronomical Twilight 5:59 AM CST 8:14 PM CST
Moon No Moon Rise 10:14 AM CST (3/2)
Length of Visible Light 12h 23m
Length of Day
11h 35m
Waning Gibbous, 74% of the Moon is Illuminated
Mar 2
Waning Gibbous
Mar 4
Last Quarter
Mar 11
New
Mar 19
First Quarter
Mar 27
Full

Hourly Weather History & Observations

Time (CST) Temp. Dew Point Humidity Pressure Visibility Wind Dir Wind Speed Gust Speed Precip Events Conditions
12:15 AM 32.4 °F 8.2 °F 36% 30.40 in 10.0 mi North - - N/A   Clear
12:35 AM 31.1 °F 7.7 °F 37% 30.39 in 10.0 mi North - - N/A   Clear
12:55 AM 32.2 °F 8.2 °F 37% 30.39 in 10.0 mi North - - N/A   Clear
1:15 AM 32.2 °F 8.4 °F 37% 30.39 in 10.0 mi North - - N/A   Clear
1:35 AM 32.9 °F 8.4 °F 36% 30.39 in 10.0 mi North - - N/A   Clear
1:55 AM 32.4 °F 8.6 °F 37% 30.39 in 10.0 mi North - - N/A   Clear
2:15 AM 33.4 °F 8.6 °F 35% 30.39 in 10.0 mi North - - N/A   Clear
2:35 AM 33.4 °F 8.6 °F 35% 30.39 in 10.0 mi North - - N/A   Clear
2:55 AM 36.7 °F 9.1 °F 32% 30.38 in 10.0 mi North - - N/A   Clear
3:15 AM 35.4 °F 8.6 °F 33% 30.38 in 10.0 mi North - - N/A   Clear
3:35 AM 33.3 °F 8.8 °F 36% 30.39 in 10.0 mi North - - N/A   Clear
3:55 AM 36.3 °F 8.6 °F 32% 30.39 in 10.0 mi North - - N/A   Clear
4:15 AM 39.6 °F 8.4 °F 28% 30.40 in 10.0 mi North - - N/A   Clear
4:35 AM 35.4 °F 8.6 °F 33% 30.40 in 10.0 mi North - - N/A   Clear
4:55 AM 37.2 °F 8.6 °F 31% 30.41 in 10.0 mi North - - N/A   Clear
5:15 AM 37.4 °F 8.6 °F 30% 30.41 in 10.0 mi North - - N/A   Clear
6:15 AM 33.4 °F 9.0 °F 36% 30.43 in 10.0 mi North - - N/A   Clear
6:35 AM 36.0 °F 9.0 °F 33% 30.43 in 10.0 mi North - - N/A   Clear
6:55 AM 36.0 °F 9.0 °F 33% 30.43 in 10.0 mi North - - N/A   Clear
7:15 AM 31.3 °F 8.6 °F 39% 30.43 in 10.0 mi North - - N/A   Clear
7:35 AM 33.3 °F 8.8 °F 36% 30.44 in 10.0 mi North - - N/A   Clear
7:55 AM 35.6 °F 9.7 °F 34% 30.44 in 10.0 mi North - - N/A   Clear
8:15 AM 42.4 °F 10.2 °F 27% 30.45 in 10.0 mi North - - N/A   Clear
8:35 AM 47.5 °F 10.0 °F 22% 30.46 in 10.0 mi North - - N/A   Clear
8:55 AM 49.8 °F 9.9 °F 20% 30.46 in 10.0 mi North - - N/A   Clear
9:15 AM 51.1 °F 10.6 °F 20% 30.47 in 10.0 mi North - - N/A   Clear
9:35 AM 52.7 °F 11.1 °F 19% 30.47 in 10.0 mi North - - N/A   Clear
9:55 AM 53.8 °F 10.9 °F 18% 30.47 in 10.0 mi North - - N/A   Clear
10:15 AM 55.4 °F 10.9 °F 17% 30.47 in 10.0 mi North - - N/A   Clear
10:35 AM 56.5 °F 11.1 °F 17% 30.46 in 10.0 mi North - - N/A   Clear
10:55 AM 56.8 °F 10.4 °F 16% 30.46 in 10.0 mi North - - N/A   Clear
11:15 AM 58.1 °F 11.1 °F 16% 30.47 in 10.0 mi North - - N/A   Clear
11:35 AM 59.7 °F 11.1 °F 15% 30.47 in 10.0 mi North - - N/A   Clear
11:55 AM 59.9 °F 11.3 °F 15% 30.46 in 10.0 mi North - - N/A   Clear
12:15 PM 60.6 °F 11.8 °F 15% 30.45 in 10.0 mi North - - N/A   Clear
12:35 PM 60.4 °F 11.8 °F 15% 30.44 in 10.0 mi North - - N/A   Clear
12:55 PM 62.1 °F 12.7 °F 15% 30.43 in 10.0 mi North - - N/A   Clear
1:15 PM 62.4 °F 12.6 °F 14% 30.42 in 10.0 mi North - - N/A   Clear
1:35 PM 63.0 °F 12.9 °F 14% 30.41 in 10.0 mi North - - N/A   Clear
1:55 PM 64.0 °F 13.5 °F 14% 30.40 in 10.0 mi North - - N/A   Clear
2:15 PM 64.2 °F 13.6 °F 14% 30.39 in 10.0 mi North - - N/A   Clear
2:35 PM 66.4 °F 14.5 °F 14% 30.37 in 10.0 mi North - - N/A   Clear
2:55 PM 65.1 °F 13.5 °F 13% 30.36 in 10.0 mi North - - N/A   Clear
3:15 PM 66.4 °F 14.0 °F 13% 30.36 in 10.0 mi North - - N/A   Clear
3:35 PM 66.0 °F 14.0 °F 13% 30.35 in 10.0 mi North - - N/A   Clear
3:55 PM 66.9 °F 14.0 °F 13% 30.34 in 10.0 mi North - - N/A   Clear
4:15 PM 66.0 °F 13.8 °F 13% 30.34 in 10.0 mi North - - N/A   Clear
4:35 PM 66.0 °F 13.8 °F 13% 30.33 in 10.0 mi North - - N/A   Clear
4:55 PM 65.8 °F 13.8 °F 13% 30.33 in 10.0 mi North - - N/A   Clear
5:15 PM 65.1 °F 13.8 °F 14% 30.33 in 10.0 mi North - - N/A   Clear
5:35 PM 64.4 °F 13.6 °F 14% 30.33 in 10.0 mi North - - N/A   Clear
5:55 PM 63.9 °F 13.6 °F 14% 30.34 in 10.0 mi North - - N/A   Clear
6:15 PM 62.2 °F 13.6 °F 15% 30.34 in 10.0 mi North - - N/A   Clear
6:35 PM 60.1 °F 13.8 °F 16% 30.34 in 10.0 mi North - - N/A   Clear
6:55 PM 56.8 °F 13.5 °F 18% 30.35 in 10.0 mi North - - N/A   Clear
7:15 PM 54.7 °F 13.6 °F 20% 30.35 in 10.0 mi North - - N/A   Clear
7:35 PM 54.5 °F 13.1 °F 19% 30.35 in 10.0 mi North - - N/A   Clear
7:55 PM 51.4 °F 13.3 °F 22% 30.35 in 10.0 mi North - - N/A   Clear
8:15 PM 43.9 °F 12.2 °F 28% 30.35 in 10.0 mi North - - N/A   Clear
8:35 PM 41.2 °F 11.3 °F 30% 30.35 in 10.0 mi North - - N/A   Clear
8:55 PM 42.1 °F 12.2 °F 30% 30.35 in 10.0 mi North - - N/A   Clear
9:15 PM 42.3 °F 12.7 °F 30% 30.34 in 10.0 mi North - - N/A   Clear
9:35 PM 39.9 °F 12.6 °F 33% 30.34 in 10.0 mi North - - N/A   Clear
9:55 PM 43.5 °F 12.7 °F 29% 30.34 in 10.0 mi North - - N/A   Clear
10:15 PM 41.7 °F 12.6 °F 31% 30.34 in 10.0 mi North - - N/A   Clear
10:35 PM 45.5 °F 12.9 °F 27% 30.34 in 10.0 mi North - - N/A   Clear
10:55 PM 44.1 °F 12.9 °F 28% 30.33 in 10.0 mi North - - N/A   Clear
11:15 PM 44.8 °F 13.1 °F 28% 30.32 in 10.0 mi North - - N/A   Clear
11:35 PM 46.9 °F 12.7 °F 25% 30.32 in 10.0 mi North - - N/A   Clear
11:55 PM 44.4 °F 12.6 °F 28% 30.31 in 10.0 mi North - - N/A   Clear